Miscellaneous Local Product
Issued by NWS Hastings, NE

Home | Current Version | Previous Version | Text Only | Print | Product List | Glossary Off
Versions: 1 2 3 4 5 6 7 8 9 10 11 12 13 14 15 16 17 18 19 20 21 22 23 24 25 26 27 28 29 30 31 32 33 34 35 36 37 38 39 40 41 42 43 44 45 46 47 48 49 50

169
AXUS43 KGID 280702
MISGRI

GID CWA HOURLY WEATHER ROUNDUP
NATIONAL WEATHER SERVICE HASTINGS NE
100 AM CST TUE FEB 28 2017

NOTE: "FAIR" INDICATES FEW OR NO CLOUDS BELOW 12,000 FEET WITH NO
SIGNIFICANT WEATHER AND/OR OBSTRUCTIONS TO VISIBILITY.

...SOUTH CENTRAL NEBRASKA...

CITY           SKY/WX    TMP DP  RH WIND       PRES   REMARKS
GRAND ISLAND   CLOUDY    39  38  96 W5        29.56F
HASTINGS       CLOUDY    42  38  85 SE10      29.56F
KEARNEY        CLOUDY    37  34  87 SE5       29.56F WCI  34
ORD            CLOUDY    32  30  92 N8        29.56F FOG     WCI  25
YORK           CLOUDY    43  41  93 SE10      29.57F
AURORA         CLOUDY    37  36  94 SE9       29.56F WCI  31
LEXINGTON      CLOUDY    41  30  63 S5        29.54R
HOLDREGE       CLEAR     37  34  90 S8        29.55F WCI  31
HEBRON         CLEAR     42  40  93 S7        29.59S

...NEBRASKA PANHANDLE...

CITY           SKY/WX    TMP DP  RH WIND       PRES   REMARKS
CHADRON        PTCLDY    24  22  91 W3        29.69R FOG
ALLIANCE       CLOUDY    20  18  92 W9        29.68R WCI   9
SCOTTSBLUFF    CLOUDY    28  24  85 NW7       29.69S WCI  21
SIDNEY         CLOUDY    28  24  85 NW14      29.66F WCI  17

...WESTERN AND NORTH CENTRAL NEBRASKA...

CITY           SKY/WX    TMP DP  RH WIND       PRES   REMARKS
VALENTINE      CLEAR     31  24  75 NW7       29.68R WCI  24
AINSWORTH      PTCLDY    31  30  94 NW9       29.65R WCI  23
ONEILL         CLOUDY    31  30  95 N8        29.61F WCI  24
BROKEN BOW     CLOUDY    35  30  82 N10       29.57R WCI  27
IMPERIAL       CLEAR     33  24  69 NW16      29.63R WCI  23
NORTH PLATTE   CLOUDY    35  27  72 N17       29.59R WCI  25
MCCOOK         CLEAR     41  23  48 SW14      29.59R

...EASTERN NEBRASKA...

CITY           SKY/WX    TMP DP  RH WIND       PRES   REMARKS
NORFOLK        CLOUDY    37  31  78 E8        29.60F WCI  31
SO SIOUX CITY  CLOUDY    38  30  73 E7        29.65F WCI  33
TEKAMAH        CLOUDY    36  30  79 CALM      29.65F
COLUMBUS       CLOUDY    36  30  80 E5        29.60F WCI  32
ALBION         MOCLDY    37  33  86 CALM      29.60F
OMAHA EPPLEY   CLOUDY    36  29  75 CALM      29.65F
OFFUTT AFB     CLOUDY    37  33  83 CALM      29.64F
MILLARD        CLOUDY    41  35  80 SE5       29.64F
LINCOLN        PTCLDY    35  31  85 CALM      29.61F
NEBRASKA CITY  CLOUDY    51  38  61 SE8       29.65F
BEATRICE       CLOUDY    48  45  89 SE7       29.61F
FALLS CITY     CLOUDY    48  45  89 SE8       29.64F

...NORTHERN KANSAS...

CITY           SKY/WX    TMP DP  RH WIND       PRES   REMARKS
GOODLAND       CLEAR     33  19  56 W14       29.67R WCI  23
HILL CITY      CLEAR     47  20  34 W13       29.60F
NORTON         SUNNY     39  14  35 SW9       29.58  WCI  33
PHILLIPSBURG   CLEAR     37  30  75 W6        29.60R WCI  33
SMITH CENTER   CLEAR     36  36 100 SW3       29.59F
HAYS             N/A     40  22  48 SW15      29.62S WCI  32
RUSSELL        CLEAR     48  26  42 SW10      29.61R
CONCORDIA      CLEAR     49  42  77 S23G30    29.60R
SALINA         CLEAR     58  53  84 S22G30    29.64R
TOPEKA         CLOUDY    63  58  83 S18G35    29.68F



USA.gov is the U.S. government's official web portal to all federal, state and local government web resources and services.